Time,TemperatureF,DewpointF,PressureIn,WindDirection,WindDirectionDegrees,WindSpeedMPH,WindSpeedGustMPH,Humidity,HourlyPrecipIn,Conditions,Clouds,dailyrainin,SoftwareType,DateUTC
2013-08-05 00:02:00,74.0,57.0,-100.00,SE,130,9.0,12.0,58,0.00,,,0.00,,2013-08-05 00:02:00,
2013-08-05 00:32:00,72.0,57.0,-100.00,SE,140,8.0,11.0,58,0.00,,,0.00,,2013-08-05 00:32:00,
2013-08-05 00:52:00,71.0,59.0,-100.00,SE,130,6.0,9.0,63,0.00,,,0.00,,2013-08-05 00:52:00,
2013-08-05 01:02:00,71.0,59.0,-100.00,SE,125,4.0,7.0,68,0.00,,,0.00,,2013-08-05 01:02:00,
2013-08-05 01:12:00,69.0,59.0,-100.00,SE,125,5.0,6.0,70,0.00,,,0.00,,2013-08-05 01:12:00,
2013-08-05 01:33:00,69.0,59.0,-100.00,ESE,110,6.0,7.0,69,0.00,,,0.00,,2013-08-05 01:33:00,
2013-08-05 01:42:00,69.0,59.0,-100.00,ESE,105,7.0,7.0,69,0.00,,,0.00,,2013-08-05 01:42:00,
2013-08-05 01:52:00,69.0,59.0,-100.00,ESE,105,7.0,7.0,69,0.00,,,0.00,,2013-08-05 01:52:00,
2013-08-05 02:12:00,68.0,59.0,-100.00,ESE,115,7.0,8.0,71,0.00,,,0.00,,2013-08-05 02:12:00,
2013-08-05 02:43:00,67.0,59.0,-100.00,ESE,120,7.0,9.0,72,0.00,,,0.00,,2013-08-05 02:43:00,
2013-08-05 03:12:00,66.0,59.0,-100.00,SE,125,7.0,9.0,77,0.00,,,0.00,,2013-08-05 03:12:00,
2013-08-05 03:22:00,66.0,59.0,-100.00,ESE,120,7.0,9.0,76,0.00,,,0.00,,2013-08-05 03:22:00,
2013-08-05 03:53:00,66.0,59.0,-100.00,ESE,120,7.0,9.0,78,0.00,,,0.00,,2013-08-05 03:53:00,
2013-08-05 04:02:00,66.0,59.0,-100.00,ESE,120,7.0,11.0,77,0.00,,,0.00,,2013-08-05 04:02:00,
2013-08-05 04:12:00,66.0,59.0,-100.00,ESE,120,9.0,12.0,78,0.00,,,0.00,,2013-08-05 04:12:00,
2013-08-05 04:32:00,66.0,59.0,-100.00,SE,140,12.0,16.0,77,0.00,,,0.00,,2013-08-05 04:32:00,
2013-08-05 04:43:00,66.0,59.0,-100.00,SSE,150,10.0,16.0,77,0.00,,,0.00,,2013-08-05 04:43:00,
2013-08-05 04:52:00,65.0,59.0,-100.00,SE,140,9.0,14.0,78,0.00,,,0.00,,2013-08-05 04:52:00,
2013-08-05 05:12:00,65.0,59.0,-100.00,SSE,165,7.0,10.0,82,0.00,,,0.00,,2013-08-05 05:12:00,
2013-08-05 05:53:00,64.0,61.0,-100.00,South,170,9.0,12.0,90,0.00,,,0.00,,2013-08-05 05:53:00,
2013-08-05 06:02:00,64.0,61.0,-100.00,South,180,6.0,11.0,90,0.00,,,0.00,,2013-08-05 06:02:00,
2013-08-05 06:12:00,64.0,63.0,-100.00,NNW,345,9.0,14.0,92,0.00,,,0.00,,2013-08-05 06:12:00,
2013-08-05 06:52:00,63.0,63.0,-100.00,East,80,6.0,11.0,99,0.04,,,0.00,,2013-08-05 06:52:00,
2013-08-05 07:53:00,63.0,63.0,-100.00,SSE,160,8.0,14.0,96,0.00,,,0.00,,2013-08-05 07:53:00,
2013-08-05 08:22:00,63.0,63.0,-100.00,SSE,150,7.0,16.0,98,0.00,,,0.00,,2013-08-05 08:22:00,
2013-08-05 08:34:00,63.0,63.0,-100.00,SSE,160,10.0,14.0,97,0.00,,,0.00,,2013-08-05 08:34:00,
2013-08-05 08:53:00,64.0,63.0,-100.00,SSE,155,12.0,18.0,96,0.00,,,0.00,,2013-08-05 08:53:00,
2013-08-05 09:06:00,64.0,63.0,-100.00,SSE,165,12.0,17.0,96,0.00,,,0.00,,2013-08-05 09:06:00,
2013-08-05 09:16:00,64.0,63.0,-100.00,SSE,155,11.0,16.0,96,0.00,,,0.00,,2013-08-05 09:16:00,
2013-08-05 09:37:00,64.0,63.0,-100.00,North,10,9.0,13.0,97,0.00,,,0.00,,2013-08-05 09:37:00,
2013-08-05 09:53:00,64.0,63.0,-100.00,ESE,115,7.0,17.0,95,0.00,,,0.00,,2013-08-05 09:53:00,
2013-08-05 10:32:00,64.0,63.0,-100.00,SE,135,7.0,14.0,95,0.00,,,0.00,,2013-08-05 10:32:00,
2013-08-05 10:52:00,64.0,63.0,-100.00,SE,140,9.0,12.0,94,0.00,,,0.00,,2013-08-05 10:52:00,
2013-08-05 11:07:00,64.0,63.0,-100.00,East,85,4.0,7.0,95,0.00,,,0.00,,2013-08-05 11:07:00,
2013-08-05 11:14:00,64.0,63.0,-100.00,East,100,3.0,6.0,95,0.00,,,0.00,,2013-08-05 11:14:00,
2013-08-05 12:06:00,63.0,63.0,-100.00,SE,125,5.0,9.0,96,0.00,,,0.00,,2013-08-05 12:06:00,
2013-08-05 12:55:00,64.0,63.0,-100.00,ESE,120,4.0,6.0,95,0.00,,,0.00,,2013-08-05 12:55:00,
2013-08-05 13:43:00,65.0,63.0,-100.00,SSE,150,6.0,7.0,93,0.00,,,0.00,,2013-08-05 13:43:00,
2013-08-05 14:35:00,66.0,63.0,-100.00,South,180,4.0,7.0,90,0.00,,,0.00,,2013-08-05 14:35:00,
2013-08-05 14:45:00,67.0,63.0,-100.00,South,170,4.0,5.0,89,0.00,,,0.00,,2013-08-05 14:45:00,
2013-08-05 15:24:00,68.0,64.0,-100.00,SSW,200,3.0,4.0,87,0.00,,,0.00,,2013-08-05 15:24:00,
2013-08-05 16:33:00,73.0,66.0,-100.00,NW,320,3.0,7.0,79,0.00,,,0.00,,2013-08-05 16:33:00,
2013-08-05 16:55:00,74.0,64.0,-100.00,West,270,2.0,6.0,73,0.00,,,0.00,,2013-08-05 16:55:00,
2013-08-05 17:15:00,74.0,66.0,-100.00,WSW,255,4.0,6.0,74,0.00,,,0.00,,2013-08-05 17:15:00,
2013-08-05 17:35:00,75.0,66.0,-100.00,WNW,285,4.0,7.0,73,0.00,,,0.00,,2013-08-05 17:35:00,
2013-08-05 17:56:00,76.0,68.0,-100.00,NW,325,2.0,8.0,74,0.00,,,0.00,,2013-08-05 17:56:00,
2013-08-05 18:34:00,76.0,66.0,-100.00,WNW,285,7.0,10.0,71,0.00,,,0.00,,2013-08-05 18:34:00,
2013-08-05 18:53:00,77.0,66.0,-100.00,NW,325,6.0,11.0,71,0.00,,,0.00,,2013-08-05 18:53:00,
2013-08-05 19:14:00,76.0,64.0,-100.00,West,265,6.0,11.0,66,0.00,,,0.00,,2013-08-05 19:14:00,
2013-08-05 20:07:00,78.0,64.0,-100.00,West,260,6.0,11.0,64,0.00,,,0.00,,2013-08-05 20:07:00,
2013-08-05 20:15:00,79.0,66.0,-100.00,West,280,9.0,12.0,66,0.00,,,0.00,,2013-08-05 20:15:00,
2013-08-05 20:35:00,79.0,68.0,-100.00,WSW,255,9.0,13.0,67,0.00,,,0.00,,2013-08-05 20:35:00,
2013-08-05 20:47:00,79.0,63.0,-100.00,West,265,11.0,14.0,59,0.00,,,0.00,,2013-08-05 20:47:00,
2013-08-05 20:55:00,78.0,66.0,-100.00,WNW,290,6.0,11.0,66,0.00,,,0.00,,2013-08-05 20:55:00,
2013-08-05 21:33:00,79.0,66.0,-100.00,NW,310,9.0,14.0,64,0.00,,,0.00,,2013-08-05 21:33:00,
2013-08-05 21:53:00,79.0,64.0,-100.00,WNW,285,12.0,17.0,62,0.00,,,0.00,,2013-08-05 21:53:00,
2013-08-05 22:53:00,78.0,66.0,-100.00,NW,325,9.0,17.0,69,0.00,,,0.00,,2013-08-05 22:53:00,
2013-08-05 23:33:00,76.0,66.0,-100.00,NW,315,9.0,15.0,70,0.00,,,0.00,,2013-08-05 23:33:00,